[[{"header":{"parameterUnit":"m.s-1","parameterCategory":1,"la1":30.2991,"la2":30.254,"lo1":-89.0895,"lo2":-89.0444,"dy":0.0017,"dx":0.0017,"nx":28,"ny":28,"refTime":"2024-07-10T09:00:00:Z","depth":0,"parameterNumber":2,"parameterNumberName":"U-component_of_WINDS"},"data":[0,0,0,0,0,0,0,0,0,0,0,0,0,0,0,0,0,0,0,0,0,0,0,0,0,0,0,0,0,0,0,0,0,0,0,0,0,0,0,0,0,0,0,0,0,0,0,0,0,0,0,0,0,0,0,0,0,0,3.6581,3.6582,0,3.6675,3.6676,3.6677,3.6612,3.6609,3.6606,3.6604,3.6698,3.6703,3.6708,0,0,0,0,0,0,0,0,0,0,0,0,0,3.6342,3.6347,3.6581,3.6582,3.6583,3.6675,3.6676,3.6677,3.6613,3.6609,3.6606,3.6602,3.6696,3.6702,3.6709,0,0,0,0,0,0,0,0,0,0,0,0,0,3.6442,3.6348,3.6581,3.6562,3.6561,3.6675,3.6676,3.6678,3.6614,3.6609,3.6605,3.6601,3.6694,3.6702,3.671,3.6846,0,0,3.6734,3.6737,0,0,0,0,0,0,0,0,3.6436,3.6451,3.6564,3.6564,3.6563,3.6627,3.6626,3.6734,3.6615,3.6594,3.6604,3.6599,3.6678,3.6687,3.6714,3.685,3.6854,3.6734,3.6739,3.6742,3.6745,0,0,0,0,0,0,0,3.6429,3.6446,3.6618,3.6565,3.6565,3.6548,3.6557,3.6646,3.6659,3.6595,3.6591,3.6603,3.6677,3.6707,3.6716,3.6856,3.6734,3.6741,3.6746,3.6749,3.7105,3.711,0,0,0,0,0,0,3.6424,3.6441,3.6615,3.6621,3.6488,3.6556,3.6566,3.6611,3.6658,3.6661,3.6606,3.6599,3.6695,3.6707,3.6719,3.6879,3.6742,3.675,3.6754,3.7101,3.7106,3.7111,0,0,0,0,0,0,3.642,3.6441,3.6611,3.653,3.655,3.6565,3.6615,3.6615,3.6645,3.6667,3.6668,3.6635,3.6692,3.6708,3.6814,3.6882,3.6753,3.676,3.7095,3.7102,3.7109,3.7203,0,0,0,0,0,0,3.6413,3.6439,3.6492,3.6531,3.6555,3.6706,3.662,3.662,3.6659,3.6651,3.6694,3.6696,3.669,3.6803,3.6822,3.689,3.6767,3.7089,3.7098,3.7107,3.7193,3.7212,3.7228,0,0,0,0,0,3.6405,3.6515,3.6495,3.6516,3.6621,3.671,3.6723,3.6715,3.6665,3.6717,3.6731,3.6695,3.6872,3.6814,3.6835,3.6907,3.7085,3.7096,3.7106,3.7186,3.7208,3.7227,0,0,0,0,0,0,3.6483,3.652,3.6498,3.6624,3.6665,3.6699,3.6765,3.6739,3.6794,3.6784,3.677,3.678,3.6891,3.691,3.6845,3.704,3.697,3.6985,3.7023,3.7045,3.7062,3.7054,3.6773,0,0,0,0,0,3.6515,3.6585,3.6613,3.6722,3.6743,3.6751,3.6789,3.6779,3.682,3.6836,3.6858,3.6898,3.6962,3.7005,3.7066,3.7196,3.7203,3.7256,3.7273,3.7287,3.73,3.7368,3.7391,3.7147,3.7147,3.7146,0,0,3.6581,3.661,3.6655,3.6738,3.6768,3.6839,3.6766,3.6845,3.6897,3.6848,3.6949,3.6967,3.7011,3.7129,3.7183,3.7148,3.7369,3.7301,3.7312,3.7317,3.7381,3.7404,3.7425,3.7154,3.7153,3.7151,0,0,3.6738,3.6768,3.6861,3.6892,3.6939,3.6943,3.6965,3.7004,3.7013,3.7115,3.7079,3.7141,3.7253,3.7285,3.7316,3.7484,3.7452,3.7504,3.7593,3.766,3.7679,3.7696,3.7754,3.7775,3.7517,3.7518,3.7518,0,3.6815,3.6922,3.6912,3.6993,3.703,3.6989,3.7082,3.7113,3.7176,3.7202,3.7163,3.7301,3.7328,3.7452,3.7493,3.752,3.7544,3.7499,3.7678,3.7694,3.771,3.7765,3.7787,3.7523,3.7523,3.7522,3.7522,0,3.7013,3.7088,3.7157,3.7219,3.7264,3.7351,3.7352,3.7398,3.7384,3.7392,3.7495,3.7526,3.7591,3.762,3.7607,3.7742,3.7719,3.7679,3.7608,3.7739,3.779,3.7812,3.7532,3.753,3.7528,3.7527,0,0,3.7222,3.7277,3.7302,3.7329,3.7377,3.7434,3.7518,3.7582,3.7621,3.7666,3.7735,3.783,3.7793,3.7828,3.7818,3.7877,3.8006,3.783,3.783,3.7859,3.8154,3.8182,3.8207,3.7986,3.799,3.7993,3.8149,0,3.738,3.7527,3.752,3.7657,3.7725,3.7687,3.776,3.7796,3.7806,3.7864,3.7874,3.7941,3.7888,3.7909,3.7966,3.7978,3.8064,3.7967,3.8048,3.8051,3.8036,3.8234,3.8264,3.841,3.8169,3.8173,3.8175,0,3.7584,3.7636,3.7781,3.7817,3.7845,3.7911,3.7967,3.8024,3.8064,3.8067,3.8106,3.8086,3.8169,3.8098,3.8211,3.8145,3.8178,3.8189,3.8195,3.82,3.812,3.8243,3.8457,3.8478,3.8207,3.8205,3.8202,0,3.7719,3.7826,3.7925,3.795,3.7995,3.8041,3.8062,3.8098,3.8136,3.8186,3.821,3.8269,3.8301,3.8346,3.8342,3.829,3.8457,3.8385,3.8459,3.8459,3.8495,3.8492,3.8715,3.8519,3.8519,3.8519,3.8518,0,3.7896,3.7985,3.7986,3.8047,3.8145,3.8135,3.8233,3.8248,3.828,3.8342,3.8313,3.8372,3.8364,3.8422,3.842,3.8513,3.8528,3.8531,3.8529,3.8533,3.8532,3.8552,3.8541,3.8525,3.8523,3.8522,3.8521,0,3.8063,3.8068,3.8173,3.8207,3.8217,3.8288,3.8316,3.8373,3.838,3.8459,3.8477,3.8487,3.8555,3.8555,3.8633,3.8631,3.8744,3.8731,3.8731,3.8727,3.88,3.8793,3.9043,3.9074,3.886,3.8862,3.8864,0,3.8175,3.8242,3.8283,3.8323,3.8346,3.8411,3.8449,3.8442,3.8483,3.8533,3.8583,3.8648,3.8699,3.8808,3.8822,3.8881,3.8868,3.8951,3.8876,3.8877,3.8866,3.8861,3.8867,3.8965,3.8968,3.897,3.8971,0,3.8371,3.837,3.8427,3.8485,3.8532,3.8577,3.8619,3.8653,3.8649,3.8697,3.8765,3.8805,3.8884,3.8947,3.9004,3.9023,3.8997,3.8995,3.9015,3.9018,3.9014,3.9015,3.8768,3.8989,3.8987,3.8986,3.8985,3.8984,3.8512,3.857,3.8607,3.8671,3.8702,3.8741,3.8795,3.8809,3.8866,3.8929,3.8921,3.8997,3.9033,3.9106,3.9131,3.9189,3.9159,3.9189,3.9196,3.9203,3.9209,3.9007,3.9199,3.9199,3.9198,3.9198,3.9198,0,3.8706,3.8727,3.8787,3.8845,3.8895,3.8867,3.8911,3.8954,3.9021,3.9058,3.9108,3.9186,3.9247,3.9266,3.9325,3.9368,3.9357,3.9383,3.9379,3.9383,3.9234,3.9209,3.9391,3.9391,3.9391,3.9391,3.9391,3.9391,3.8812,3.8907,3.891,3.9018,3.9039,3.9114,3.9141,3.9176,3.9205,3.9293,3.9344,3.9356,3.9384,3.9445,3.9499,3.9503,3.9525,3.9556,3.9555,3.9414,3.9394,3.9376,3.9353,3.9562,3.9562,3.9699,3.97,3.9701]},{"header":{"parameterUnit":"m.s-1","parameterCategory":1,"la1":30.2991,"la2":30.254,"lo1":-89.0895,"lo2":-89.0444,"dy":0.0017,"dx":0.0017,"nx":28,"ny":28,"refTime":"2024-07-10T09:00:00:Z","depth":0,"parameterNumber":3,"parameterNumberName":"V-component_of_WINDS"},"data":[0,0,0,0,0,0,0,0,0,0,0,0,0,0,0,0,0,0,0,0,0,0,0,0,0,0,0,0,0,0,0,0,0,0,0,0,0,0,0,0,0,0,0,0,0,0,0,0,0,0,0,0,0,0,0,0,0,0,0.3083,0.3083,0,0.3087,0.3088,0.3088,0.3063,0.3062,0.3061,0.3061,0.3066,0.3067,0.3068,0,0,0,0,0,0,0,0,0,0,0,0,0,0.3052,0.3053,0.3083,0.3083,0.3083,0.3087,0.3088,0.3088,0.3063,0.3062,0.3061,0.306,0.3066,0.3067,0.3068,0,0,0,0,0,0,0,0,0,0,0,0,0,0.3062,0.3053,0.3083,0.3071,0.307,0.3087,0.3088,0.3088,0.3063,0.3062,0.3061,0.306,0.3066,0.3067,0.3068,0.3097,0,0,0.3072,0.3073,0,0,0,0,0,0,0,0,0.3061,0.3063,0.3073,0.3072,0.3071,0.3073,0.3079,0.3091,0.3063,0.3066,0.3061,0.3059,0.307,0.307,0.3074,0.3098,0.3098,0.3072,0.3073,0.3073,0.3074,0,0,0,0,0,0,0,0.3061,0.3063,0.3085,0.3073,0.3072,0.3065,0.3066,0.3081,0.3074,0.3065,0.3064,0.3064,0.3069,0.3073,0.3074,0.3098,0.3072,0.3073,0.3074,0.3074,0.3144,0.3145,0,0,0,0,0,0,0.3062,0.3062,0.3085,0.3085,0.3063,0.3067,0.3067,0.3074,0.3073,0.3072,0.3065,0.3063,0.3071,0.3072,0.3074,0.3107,0.3073,0.3075,0.3075,0.3143,0.3144,0.3145,0,0,0,0,0,0,0.3061,0.3064,0.3084,0.3073,0.3075,0.3069,0.3076,0.3074,0.3078,0.3073,0.3072,0.3071,0.307,0.3072,0.3091,0.3107,0.3075,0.3076,0.3142,0.3143,0.3145,0.3174,0,0,0,0,0,0,0.306,0.3064,0.3075,0.3073,0.3076,0.3102,0.3077,0.3075,0.308,0.3077,0.3078,0.3077,0.307,0.309,0.3092,0.3108,0.3077,0.314,0.3142,0.3144,0.3172,0.3177,0.3181,0,0,0,0,0,0.3059,0.3084,0.3076,0.3079,0.309,0.3103,0.3104,0.3095,0.3082,0.3093,0.3089,0.3077,0.3104,0.3092,0.3095,0.3111,0.3139,0.3142,0.3144,0.317,0.3176,0.3181,0,0,0,0,0,0,0.3089,0.3084,0.3075,0.31,0.3102,0.3099,0.3113,0.3102,0.3109,0.3106,0.3094,0.3094,0.3115,0.3115,0.3101,0.3138,0.3119,0.3123,0.3138,0.3144,0.3148,0.3148,0.3078,0,0,0,0,0,0.3098,0.3109,0.3104,0.3126,0.3128,0.312,0.3125,0.3118,0.312,0.3121,0.3119,0.3122,0.313,0.3137,0.3145,0.3171,0.3171,0.3184,0.3188,0.3192,0.3195,0.3208,0.3213,0.3154,0.3154,0.3154,0,0,0.3118,0.3116,0.3124,0.3132,0.3133,0.3144,0.3121,0.3135,0.3143,0.3123,0.3141,0.3139,0.3141,0.3164,0.3173,0.3164,0.3211,0.3195,0.3198,0.3199,0.3211,0.3217,0.3222,0.3155,0.3155,0.3155,0,0,0.3159,0.3159,0.3177,0.3178,0.3179,0.3173,0.3177,0.3176,0.3174,0.3191,0.3176,0.3185,0.3201,0.3203,0.3206,0.3245,0.3234,0.3248,0.3272,0.3284,0.3289,0.3293,0.3306,0.3311,0.3251,0.3251,0.3251,0,0.3184,0.32,0.3188,0.3202,0.3205,0.3187,0.3204,0.3206,0.321,0.3213,0.3202,0.322,0.322,0.3242,0.3251,0.3254,0.3259,0.3248,0.3289,0.3293,0.3297,0.3309,0.3315,0.3253,0.3252,0.3252,0.3252,0,0.3229,0.3241,0.3255,0.3258,0.3263,0.3279,0.3269,0.3276,0.3267,0.3262,0.3279,0.3278,0.3285,0.3289,0.3282,0.331,0.3304,0.3291,0.3272,0.3304,0.3316,0.3321,0.3255,0.3254,0.3254,0.3253,0,0,0.3292,0.3286,0.3292,0.3292,0.3291,0.3299,0.3313,0.3319,0.3325,0.3328,0.3339,0.3352,0.3339,0.3343,0.3334,0.3345,0.3375,0.3331,0.3331,0.3339,0.3405,0.3415,0.3421,0.3367,0.3368,0.3368,0.3405,0,0.3332,0.3356,0.3345,0.337,0.338,0.3361,0.3373,0.3373,0.3368,0.3376,0.337,0.338,0.3363,0.3364,0.3374,0.3369,0.3388,0.3366,0.3377,0.3378,0.3378,0.3427,0.3438,0.3472,0.3409,0.341,0.3411,0,0.3383,0.3386,0.3412,0.3407,0.3411,0.3422,0.3426,0.3433,0.3432,0.3428,0.343,0.3419,0.3432,0.3412,0.3429,0.3415,0.3418,0.3416,0.3417,0.3418,0.3397,0.3429,0.3483,0.3488,0.3418,0.3417,0.3417,0,0.3425,0.3436,0.3453,0.3454,0.3449,0.3457,0.3455,0.3453,0.3457,0.346,0.3462,0.3466,0.3469,0.3472,0.3462,0.3449,0.348,0.346,0.3477,0.3477,0.3485,0.3485,0.354,0.3487,0.3487,0.3487,0.3487,0,0.3472,0.3489,0.3472,0.3482,0.35,0.3486,0.3503,0.3499,0.3497,0.3506,0.349,0.3498,0.3484,0.3491,0.3483,0.3498,0.3499,0.3496,0.3493,0.3497,0.3498,0.35,0.3497,0.3488,0.3488,0.3488,0.3487,0,0.3523,0.3512,0.3529,0.3522,0.352,0.3534,0.3527,0.3536,0.3529,0.354,0.3542,0.3532,0.3539,0.3528,0.3535,0.3529,0.3549,0.3543,0.355,0.3548,0.3565,0.3564,0.3625,0.3631,0.3573,0.3574,0.3575,0,0.3554,0.3566,0.3559,0.3563,0.3562,0.357,0.3573,0.3559,0.3563,0.3561,0.357,0.3575,0.3579,0.3591,0.3584,0.3588,0.3582,0.3603,0.3583,0.3586,0.3582,0.3582,0.3582,0.3607,0.3608,0.3609,0.3609,0,0.3609,0.3603,0.3608,0.361,0.3614,0.3616,0.3616,0.3621,0.3606,0.3611,0.3617,0.362,0.3625,0.363,0.3632,0.363,0.3617,0.3615,0.3619,0.3624,0.3627,0.3625,0.3561,0.3614,0.3614,0.3613,0.3613,0.3613,0.3651,0.366,0.3656,0.3662,0.366,0.366,0.3668,0.3661,0.3666,0.3669,0.366,0.3669,0.3665,0.3666,0.3665,0.3671,0.3662,0.3668,0.367,0.3672,0.3674,0.3625,0.3672,0.3671,0.3671,0.3671,0.3671,0,0.3705,0.3701,0.3706,0.3706,0.3711,0.3697,0.3696,0.37,0.3707,0.3705,0.3709,0.3715,0.372,0.3712,0.3715,0.3721,0.3715,0.3723,0.3722,0.3722,0.3682,0.3678,0.3727,0.3727,0.3727,0.3727,0.3727,0.3727,0.3734,0.3748,0.3741,0.3754,0.375,0.3758,0.3758,0.3758,0.3756,0.3764,0.3767,0.3762,0.3757,0.3759,0.3762,0.376,0.3762,0.3771,0.3766,0.373,0.3725,0.3719,0.3716,0.3771,0.3772,0.3805,0.3805,0.3806]}]]